Orbital Elements at Epoch 2459200.5 (2020-Dec-17.0) TDB
Reference: JPL 19 (heliocentric ecliptic J2000)
Element | Value | Uncertainty (1-sigma) | Units |
e | .1732485723849481 | 3.1961e-08 | |
a | 2.339782009853986 | 9.8058e-09 | au |
q | 1.934418116954798 | 7.3675e-08 | au |
i | 3.283781866321116 | 3.3371e-06 | deg |
node | 88.06083663741506 | 6.8365e-05 | deg |
peri | 21.00510248130697 | 6.9413e-05 | deg |
M | 248.1042842933762 | 1.3606e-05 | deg |
tp | 2459606.824005177097 (2022-Jan-27.32400518) | 5.1024e-05 | TDB |
period | 1307.258646499687 3.58 | 8.2179e-06 2.25e-08 | d yr |
n | .2753854418664089 | 1.7312e-09 | deg/d |
Q | 2.745145902753174 | 1.1505e-08 | au |
|
| | Orbit Determination Parameters
Additional Information
|